Litchfield, IL

4:14 AM CST on December 14, 2017 (GMT -0600)
Litchfield

Weather History for K3LF - February, 2014

Change the Weather History Date:

Thursday, February 27, 2014

  Actual Average (KALN) Record (KALN)
Temperature  
Mean Temperature 18 °F -  
Max Temperature 22 °F 44 °F 64 °F (1999)
Min Temperature 12 °F 29 °F -4 °F (2015)
Degree Days  
Heating Degree Days 48    
Moisture  
Dew Point 3 °F    
Average Humidity 53    
Maximum Humidity 73    
Minimum Humidity 34    
Precipitation  
Precipitation 0.00 in - - ()
Sea Level Pressure  
Sea Level Pressure 30.06 in    
Wind  
Wind Speed 10 mph (NW)    
Max Wind Speed 23 mph    
Max Gust Speed 26 mph    
Visibility 10 miles    
Events      
Averages and records for this station are not official NWS values.
T = Trace of Precipitation, MM = Missing Value Source: NWS Daily Summary

Daily Weather History Graph

Daily Weather History Graph

Search for Another Location

Airport or City:

Trip Planner

Search our weather history database for the weather conditions in past years. The results will help you decide how hot, cold, wet, or windy it might be!

Date:

Astronomy

Feb. 27, 2014 Rise Set
Actual Time 6:34 AM CST 5:49 PM CST
Civil Twilight 6:07 AM CST 6:16 PM CST
Nautical Twilight 5:36 AM CST 6:47 PM CST
Astronomical Twilight 5:05 AM CST 7:18 PM CST
Moon 5:06 AM CST (2/27) 4:15 PM CST (2/27)
Length of Visible Light 12h 08m
Length of Day
11h 14m
Waning Crescent, 4% of the Moon is Illuminated
Feb 27
Waning Crescent
Mar 1
New
Mar 8
First Quarter
Mar 16
Full
Mar 23
Last Quarter

Hourly Weather History & Observations

Time (CST) Temp. Windchill Dew Point Humidity Pressure Visibility Wind Dir Wind Speed Gust Speed Precip Events Conditions
12:15 AM 21.2 °F 6.8 °F 8.8 °F 59% 29.88 in 10.0 mi WSW 17.3 mph 21.9 mph N/A   Clear
12:35 AM 21.4 °F 6.6 °F 9.3 °F 60% 29.88 in 10.0 mi WSW 18.4 mph 21.9 mph N/A   Clear
12:55 AM 21.2 °F 7.3 °F 9.5 °F 61% 29.88 in 10.0 mi WSW 16.1 mph - N/A   Clear
1:15 AM 21.6 °F 8.2 °F 10.0 °F 61% 29.88 in 10.0 mi WSW 15.0 mph - N/A   Clear
1:35 AM 21.2 °F 8.9 °F 10.6 °F 64% 29.88 in 10.0 mi WSW 12.7 mph 18.4 mph N/A   Clear
1:55 AM 21.0 °F 8.6 °F 11.3 °F 66% 29.88 in 10.0 mi WSW 12.7 mph 18.4 mph N/A   Clear
2:15 AM 21.0 °F - 12.0 °F 68% 29.88 in 10.0 mi Calm Calm - N/A   Clear
2:35 AM 21.6 °F 11.3 °F 12.7 °F 69% 29.88 in 10.0 mi West 9.2 mph - N/A   Clear
2:55 AM 22.3 °F - 13.1 °F 68% 29.88 in 10.0 mi Calm Calm - N/A   Clear
3:10 AM 22.3 °F 10.2 °F 13.5 °F 69% 29.88 in 10.0 mi West 12.7 mph 16.1 mph N/A   Clear
3:35 AM 22.3 °F 10.2 °F 13.6 °F 69% 29.89 in 10.0 mi West 12.7 mph - N/A   Clear
3:55 AM 22.3 °F 9.7 °F 13.8 °F 70% 29.90 in 10.0 mi WNW 13.8 mph - N/A   Clear
4:15 AM 22.3 °F 13.0 °F 13.8 °F 70% 29.91 in 10.0 mi WNW 8.1 mph 17.3 mph N/A   Clear
4:35 AM 22.5 °F 8.9 °F 13.3 °F 68% 29.92 in 10.0 mi NW 16.1 mph 23.0 mph N/A   Clear
4:55 AM 21.6 °F 7.8 °F 12.7 °F 69% 29.94 in 10.0 mi NNW 16.1 mph 23.0 mph N/A   Scattered Clouds
5:15 AM 18.5 °F 2.9 °F 11.3 °F 73% 29.96 in 10.0 mi NNW 18.4 mph 25.3 mph N/A   Scattered Clouds
5:35 AM 16.7 °F 0.5 °F 8.8 °F 71% 29.98 in 10.0 mi NNW 18.4 mph 23.0 mph N/A   Clear
5:55 AM 16.2 °F 1.3 °F 6.8 °F 67% 29.98 in 10.0 mi NW 15.0 mph 23.0 mph N/A   Clear
6:15 AM 15.6 °F 1.8 °F 5.9 °F 66% 30.00 in 10.0 mi NW 12.7 mph 19.6 mph N/A   Clear
6:35 AM 14.9 °F 1.6 °F 4.8 °F 64% 30.01 in 10.0 mi NW 11.5 mph - N/A   Clear
6:55 AM 14.7 °F -0.5 °F 4.3 °F 63% 30.02 in 10.0 mi NW 15.0 mph 19.6 mph N/A   Clear
7:15 AM 14.5 °F -0.7 °F -0.9 °F 50% 30.03 in 10.0 mi NW 15.0 mph 23.0 mph N/A   Clear
7:35 AM 14.5 °F -4.0 °F -0.4 °F 52% 30.05 in 10.0 mi NW 23.0 mph 26.5 mph N/A   Clear
7:50 AM 14.7 °F -1.6 °F -1.3 °F 49% 30.07 in 10.0 mi NNW 17.3 mph 23.0 mph N/A   Clear
8:15 AM 15.3 °F -1.3 °F -2.9 °F 45% 30.08 in 10.0 mi NNW 18.4 mph 24.2 mph N/A   Clear
8:35 AM 15.6 °F -0.4 °F -4.7 °F 40% 30.09 in 10.0 mi NNW 17.3 mph 20.7 mph N/A   Clear
8:55 AM 16.2 °F 2.5 °F -0.9 °F 47% 30.11 in 10.0 mi NW 12.7 mph 18.4 mph N/A   Clear
9:15 AM 16.5 °F 0.3 °F -3.1 °F 42% 30.11 in 10.0 mi NNW 18.4 mph 24.2 mph N/A   Clear
9:35 AM 18.0 °F 3.6 °F -0.8 °F 44% 30.12 in 10.0 mi NW 15.0 mph 18.4 mph N/A   Clear
9:55 AM 17.2 °F 2.7 °F -2.9 °F 41% 30.14 in 10.0 mi NW 15.0 mph 21.9 mph N/A   Clear
10:15 AM 18.1 °F 12.9 °F -3.3 °F 39% 30.15 in 10.0 mi NW 3.5 mph 21.9 mph N/A   Clear
10:35 AM 17.8 °F 5.9 °F -5.8 °F 35% 30.16 in 10.0 mi North 10.4 mph 18.4 mph N/A   Clear
10:55 AM 18.1 °F 5.6 °F -5.6 °F 35% 30.16 in 10.0 mi NNW 11.5 mph 19.6 mph N/A   Clear
11:15 AM 19.0 °F 13.9 °F -3.8 °F 36% 30.16 in 10.0 mi NNW 3.5 mph - N/A   Clear
11:35 AM 18.9 °F - -2.0 °F 40% 30.15 in 10.0 mi Calm Calm - N/A   Clear
11:55 AM 19.4 °F - -4.0 °F 36% 30.15 in 10.0 mi Calm Calm - N/A   Clear
12:15 PM 19.6 °F 9.7 °F -3.8 °F 36% 30.15 in 10.0 mi NNW 8.1 mph 17.3 mph N/A   Clear
12:30 PM 19.8 °F 6.5 °F -3.6 °F 36% 30.14 in 10.0 mi NNW 13.8 mph 17.3 mph N/A   Clear
12:55 PM 20.1 °F - -2.7 °F 37% 30.14 in 10.0 mi Calm Calm - N/A   Clear
1:10 PM 19.8 °F - -3.8 °F 35% 30.13 in 10.0 mi Calm Calm - N/A   Clear
1:35 PM 19.9 °F - -4.5 °F 34% 30.12 in 10.0 mi Calm Calm - N/A   Clear
1:55 PM 20.3 °F - -2.7 °F 36% 30.12 in 10.0 mi Calm Calm - N/A   Clear
2:15 PM 20.7 °F - -2.2 °F 37% 30.12 in 10.0 mi Calm Calm - N/A   Clear
2:35 PM 21.7 °F - -1.3 °F 37% 30.12 in 10.0 mi Calm Calm - N/A   Clear
2:55 PM 21.4 °F 16.6 °F -2.0 °F 36% 30.11 in 10.0 mi North 3.5 mph - N/A   Clear
3:15 PM 21.0 °F - -1.8 °F 37% 30.11 in 10.0 mi Calm Calm - N/A   Clear
3:35 PM 20.8 °F - -2.0 °F 37% 30.11 in 10.0 mi Calm Calm - N/A   Clear
3:55 PM 21.2 °F - -0.9 °F 38% 30.11 in 10.0 mi Calm Calm - N/A   Clear
4:15 PM 20.8 °F - -0.6 °F 39% 30.11 in 10.0 mi Calm Calm - N/A   Clear
4:35 PM 20.5 °F - -0.2 °F 41% 30.11 in 10.0 mi Calm Calm - N/A   Clear
4:55 PM 20.3 °F - 0.5 °F 42% 30.11 in 10.0 mi Calm Calm - N/A   Clear
5:10 PM 20.1 °F - 1.0 °F 44% 30.11 in 10.0 mi Calm Calm - N/A   Clear
5:35 PM 19.0 °F - 1.2 °F 46% 30.12 in 10.0 mi Calm Calm - N/A   Clear
5:55 PM 18.0 °F - 1.9 °F 50% 30.12 in 10.0 mi Calm Calm - N/A   Clear
6:15 PM 17.6 °F - 1.0 °F 48% 30.13 in 10.0 mi Calm Calm - N/A   Clear
6:35 PM 17.2 °F - 1.0 °F 49% 30.13 in 10.0 mi Calm Calm - N/A   Clear
6:55 PM 17.1 °F - 1.4 °F 50% 30.13 in 10.0 mi Calm Calm - N/A   Clear
7:15 PM 16.3 °F - 2.3 °F 54% 30.13 in 10.0 mi Calm Calm - N/A   Clear
7:35 PM 16.2 °F - 3.0 °F 56% 30.13 in 10.0 mi Calm Calm - N/A   Clear
7:55 PM 16.7 °F - 2.1 °F 53% 30.13 in 10.0 mi Calm Calm - N/A   Clear
8:15 PM 16.7 °F - 3.6 °F 56% 30.13 in 10.0 mi Calm Calm - N/A   Scattered Clouds
8:35 PM 16.2 °F - 4.5 °F 60% 30.12 in 10.0 mi Calm Calm - N/A   Scattered Clouds
8:55 PM 15.8 °F - 4.1 °F 60% 30.12 in 10.0 mi Calm Calm - N/A   Clear
9:15 PM 15.4 °F - 4.1 °F 61% 30.12 in 10.0 mi Calm Calm - N/A   Clear
9:35 PM 14.9 °F - 3.7 °F 61% 30.12 in 10.0 mi Calm Calm - N/A   Clear
9:55 PM 14.7 °F - 3.0 °F 60% 30.13 in 10.0 mi Calm Calm - N/A   Clear
10:15 PM 14.4 °F - 3.6 °F 62% 30.14 in 10.0 mi Calm Calm - N/A   Clear
10:35 PM 14.0 °F - 3.7 °F 64% 30.15 in 10.0 mi Calm Calm - N/A   Clear
10:55 PM 13.1 °F - 4.1 °F 67% 30.15 in 10.0 mi Calm Calm - N/A   Clear
11:15 PM 13.3 °F - 5.0 °F 70% 30.14 in 10.0 mi Calm Calm - N/A   Clear
11:35 PM 13.1 °F - 5.0 °F 70% 30.13 in 10.0 mi Calm Calm - N/A   Clear
11:55 PM 12.9 °F - 5.0 °F 71% 30.13 in 10.0 mi Calm Calm - N/A   Clear